392  
ASUS41 KBOX 231110  
RWRBOX  
 
REGIONAL WEATHER ROUNDUP  
NATIONAL WEATHER SERVICE BOSTON/NORTON MA  
700 AM EDT TUE JUL 23 2019  
 
NOTE: "FAIR" INDICATES FEW OR NO CLOUDS BELOW 12,000 FEET WITH NO  
SIGNIFICANT WEATHER AND/OR S TO VISIBILITY
.  
 
MAZALL-231200-  
EASTERN MASSACHUSETTS  
 
CITY SKY/WX TMP DP RH WIND PRES REMARKS
 
BOSTON HVY RAIN 66 63 90 NE15 29.81R FOG  
BEVERLY RAIN 64 62 93 N9 29.81R FOG  
LAWRENCE LGT RAIN 63 62 97 NE7 29.84R FOG  
BEDFORD HVY RAIN 66 61 84 N10 29.81R  
BLUE HILL N/A 62 62 100 NE13G23 29.79R  
NORWOOD LGT RAIN 67 62 84 NE7 29.79R  
MARSHFIELD LGT RAIN 66 66 100 E12G18 29.77F  
PLYMOUTH LGT RAIN 66 65 96 NE12 29.74F  
TAUNTON LGT RAIN 67 64 90 VRB6 29.73F  
NEW BEDFORD FAIR 67 65 93 NE7 29.70F  

 
 
MAZALL-231200-  
CAPE COD AND THE ISLANDS  
 
CITY SKY/WX TMP DP RH WIND PRES REMARKS
 
FALMOUTH DRIZZLE 70 70 100 NE10 29.75F  
HYANNIS LGT RAIN 73 70 90 E5 29.75F FOG  
CHATHAM CLOUDY 69 68 96 E7 29.78F FOG  
PROVINCETOWN CLOUDY 66 65 96 E13 29.80R  
NANTUCKET FAIR 72 71 97 SE5 29.79R  
MARTHAS VNYRD LGT RAIN 71 69 93 SE7 29.73F  

 
 
MAZALL-231200-  
CENTRAL AND WESTERN MASSACHUSETTS  
 
CITY SKY/WX TMP DP RH WIND PRES REMARKS
 
WORCESTER RAIN 61 61 100 N6 29.83R FOG  
FITCHBURG RAIN 63 61 93 N6 29.83R FOG  
ORANGE LGT RAIN 64 61 90 NW6 29.83S  
SPRINGFIELD LGT RAIN 63 63 99 NE7 29.80S  
WESTFIELD LGT RAIN 63 61 93 N7 29.81R  
NORTH ADAMS RAIN 63 63 100 W3 29.84R FOG  
PITTSFIELD LGT RAIN 62 60 93 CALM 29.83R FOG  

 
 
RIZALL-231200-  
RHODE ISLAND  
 
CITY SKY/WX TMP DP RH WIND PRES REMARKS
 
PROVIDENCE LGT RAIN 66 66 100 N13 29.74F  
NEWPORT LGT RAIN 69 68 96 NE8 29.71S  
BLOCK ISLAND N/A N/A N/A N/A MISG N/A  
SMITHFIELD RAIN 64 63 96 N13 29.79R  
WESTERLY PTSUNNY 71 70 96 N8 29.73R  

 
 
CTZALL-231200-  
CONNECTICUT  
 
CITY SKY/WX TMP DP RH WIND PRES REMARKS
 
BRADLEY INTL RAIN 63 62 97 N10 29.77F FOG  
HARTFORD LGT RAIN 64 62 93 N12 29.76R FOG  
BRIDGEPORT LGT RAIN 67 63 87 N13 29.74R  
DANBURY HVY RAIN 63 62 97 N6 29.79 FOG  
GROTON CLOUDY 72 68 87 N12 29.72R  
NEW HAVEN CLOUDY 67 64 90 N14 29.75R  
CHESTER LGT RAIN 66 64 94 N7G13 29.75R  
MERIDEN RAIN 64 62 93 N8 29.75F  
WILLIMANTIC LGT RAIN 64 62 93 N12 29.77F  
OXFORD RAIN 62 62 100 N12 29.78R FOG  

 
 
MEZ002-015-021-024-NHZ003-005-008-011-012-014-VTZ005-008-231200-  
NORTHERN NEW ENGLAND  
 
CITY SKY/WX TMP DP RH WIND PRES REMARKS
 
PORTLAND ME LGT RAIN 62 58 86 N7 29.85R  
BANGOR ME CLOUDY 61 58 90 NW3 29.84R  
CONCORD NH LGT RAIN 61 59 93 NE5 29.85R  
MANCHESTER NH LGT RAIN 64 62 93 N7 29.82S  
NASHUA NH RAIN 63 63 100 NW5 29.84R  
PORTSMOUTH NH RAIN 62 61 97 N5 29.82S FOG  
JAFFREY NH LGT RAIN 62 60 93 VRB5 29.85R FOG  
KEENE NH RAIN 63 62 97 CALM 29.84S  
BURLINGTON VT PTSUNNY 64 59 83 CALM 29.86R  
MT. WASHINGTON LGT RAIN 44 44 98 N8 N/A  

 
 
NYZ052-076-231200-  
EASTERN NEW YORK  
 
CITY SKY/WX TMP DP RH WIND PRES REMARKS
 
ALBANY LGT RAIN 65 62 90 N7 29.84S  
NEW YORK CITY RAIN 69 65 86 NE10 29.73R FOG  

 
 
ANZALL-231200-  
MARINE OBSERVATIONS  
 
STATION/POSITION TIME TEMP WIND PRES VSBY WAVE
 
AIR SEA DIR/SP/G HT/PER  
(UTC) (F) (DEG/KT/KT) (MB) (MI) (FT/S)  
BOSTON BUOY 1050 65 68 60/ 19/ 21 1007.2R 5/ 6  
BUZZARDS BAY NOT AVBL  
NANTUCKET SOUND 1040 76 N/A 1  
MASS BAY-STELLWA 1004 65 66 60/ 17/ 19 1007.6F 1 7/8 4/ 5  
ISLE OF SHOALS 1000 63 50/ 18/ 20 1008.4R  
S OF BLOCK IS 1100 72 N/A 5/ 7  

 
   
.....................KEY......................
 
 
SKY/WX - SKY CONDITION/PRESENT WEATHER  
TMP - TEMPERATURE IN FAHRENHEIT  
DWPT - DEWPOINT IN FAHRENHEIT  
RH - RELATIVE HUMIDITY IN PERCENT  
WIND - DIRECTION AND SPEED IN MPH  
PRES - MEAN SEA LEVEL PRESSURE IN INCHES OF HG  
WCI - WIND CHILL INDEX  
VSB - VISIBILITY IN MILES  
HX - HEAT INDEX  
TC - TEMPERATURE IN CELSIUS  
VRB - VARIABLE WIND DIRECTION  
N/A - NOT AVAILABLE  
 
 
CLICK HERE TO GO TO PREVIOUS BULLETINS.

The Nexlab MA Page
The Nexlab RI Page
The Nexlab NH Page
The Nexlab CT Page Main Text Page